Location: Newark
(33.6439°N, 114.9881°W)
Time: 08:35:13
(UTC+00:00)

A-11 Canister half - Pass Details

Date: 27 August 2019
Orbit: 1527 x 1682 km, 47.3° (Epoch: 23 September)

Event Time Altitude Azimuth Distance (km) Brightness Sun altitude
Rises 22:57:29 0° 303° (WNW) 4,914 12.1 39.3°
Reaches altitude 10° 23:00:48 10° 308° (NW) 3,936 11.7 38.6°
Maximum altitude 23:10:40 53° 24° (NNE) 1,992 9.8 36.6°
Drops below altitude 10° 23:20:29 10° 100° (E) 3,918 10.8 34.6°
Sets 23:23:45 0° 105° (ESE) 4,891 11.2 34.0°
